TimeMDT,TemperatureF,Dew PointF,Humidity,Sea Level PressureIn,VisibilityMPH,Wind Direction,Wind SpeedMPH,Gust SpeedMPH,PrecipitationIn,Events,Conditions,WindDirDegrees,DateUTC
12:15 AM,51.3,14.2,23,30.17,10.0,Calm,Calm,-,N/A,,Clear,0,2012-10-30 06:15:00
12:35 AM,49.8,12.2,22,30.18,10.0,Calm,Calm,-,N/A,,Clear,0,2012-10-30 06:35:00
12:55 AM,49.1,13.8,24,30.18,10.0,North,4.6,-,N/A,,Clear,360,2012-10-30 06:55:00
1:15 AM,50.0,13.3,23,30.19,10.0,WNW,4.6,-,N/A,,Clear,300,2012-10-30 07:15:00
1:35 AM,50.4,13.5,23,30.19,10.0,WNW,4.6,-,N/A,,Clear,290,2012-10-30 07:35:00
1:55 AM,47.3,14.2,27,30.19,10.0,WNW,4.6,-,N/A,,Clear,300,2012-10-30 07:55:00
2:15 AM,44.6,13.1,28,30.19,10.0,WNW,3.5,-,N/A,,Clear,290,2012-10-30 08:15:00
2:35 AM,43.0,12.7,29,30.19,10.0,West,4.6,-,N/A,,Clear,270,2012-10-30 08:35:00
2:55 AM,43.5,13.1,29,30.19,10.0,West,5.8,-,N/A,,Clear,270,2012-10-30 08:55:00
3:15 AM,43.0,12.9,30,30.19,10.0,NW,4.6,-,N/A,,Clear,310,2012-10-30 09:15:00
3:35 AM,43.7,13.3,29,30.19,10.0,WNW,6.9,-,N/A,,Clear,300,2012-10-30 09:35:00
4:15 AM,46.8,13.1,26,30.18,10.0,WNW,8.1,-,N/A,,Clear,300,2012-10-30 10:15:00
4:35 AM,47.5,13.1,25,30.18,10.0,NW,6.9,-,N/A,,Clear,310,2012-10-30 10:35:00
5:15 AM,46.6,13.1,26,30.17,10.0,North,4.6,-,N/A,,Clear,350,2012-10-30 11:15:00
5:35 AM,42.6,12.2,29,30.18,10.0,Calm,Calm,-,N/A,,Clear,0,2012-10-30 11:35:00
5:55 AM,40.8,12.6,32,30.19,10.0,NW,4.6,-,N/A,,Clear,320,2012-10-30 11:55:00
6:15 AM,41.4,12.4,31,30.19,10.0,NW,6.9,-,N/A,,Clear,310,2012-10-30 12:15:00
6:35 AM,44.4,13.1,28,30.20,10.0,NW,8.1,-,N/A,,Clear,310,2012-10-30 12:35:00
6:55 AM,45.7,12.7,26,30.20,10.0,NW,10.4,-,N/A,,Clear,320,2012-10-30 12:55:00
7:35 AM,42.3,13.8,32,30.20,10.0,NW,6.9,-,N/A,,Clear,310,2012-10-30 13:35:00
7:55 AM,41.7,14.5,33,30.21,10.0,NW,4.6,-,N/A,,Clear,320,2012-10-30 13:55:00
8:15 AM,44.4,14.0,29,30.21,10.0,NNW,6.9,-,N/A,,Clear,330,2012-10-30 14:15:00
8:35 AM,46.0,14.5,28,30.22,10.0,NW,6.9,-,N/A,,Clear,320,2012-10-30 14:35:00
8:55 AM,48.2,14.7,26,30.23,10.0,NW,6.9,-,N/A,,Clear,310,2012-10-30 14:55:00
9:15 AM,50.7,14.9,24,30.24,10.0,NW,9.2,-,N/A,,Clear,320,2012-10-30 15:15:00
9:35 AM,52.7,15.1,23,30.24,10.0,NNW,8.1,-,N/A,,Clear,330,2012-10-30 15:35:00
9:55 AM,54.5,15.8,22,30.24,10.0,NNW,8.1,16.1,N/A,,Clear,340,2012-10-30 15:55:00
10:15 AM,56.5,17.2,22,30.24,10.0,North,6.9,-,N/A,,Clear,360,2012-10-30 16:15:00
10:35 AM,58.6,16.5,19,30.24,10.0,North,8.1,-,N/A,,Clear,350,2012-10-30 16:35:00
10:55 AM,60.6,17.8,19,30.24,10.0,NNW,4.6,-,N/A,,Clear,340,2012-10-30 16:55:00
11:15 AM,62.4,16.9,17,30.23,10.0,North,5.8,-,N/A,,Clear,10,2012-10-30 17:15:00
11:35 AM,65.1,17.8,16,30.22,10.0,North,5.8,-,N/A,,Clear,360,2012-10-30 17:35:00
11:55 AM,66.7,18.1,16,30.21,10.0,North,6.9,-,N/A,,Clear,350,2012-10-30 17:55:00
12:15 PM,68.7,18.5,15,30.20,10.0,North,9.2,-,N/A,,Clear,360,2012-10-30 18:15:00
12:35 PM,70.3,18.9,14,30.19,10.0,North,11.5,17.3,N/A,,Clear,10,2012-10-30 18:35:00
12:55 PM,71.6,19.6,14,30.18,10.0,North,11.5,16.1,N/A,,Clear,10,2012-10-30 18:55:00
1:15 PM,73.4,20.5,14,30.17,10.0,North,12.7,-,N/A,,Clear,360,2012-10-30 19:15:00
1:35 PM,74.3,21.0,14,30.16,10.0,North,10.4,16.1,N/A,,Clear,350,2012-10-30 19:35:00
1:55 PM,75.6,21.7,13,30.15,10.0,North,12.7,16.1,N/A,,Clear,360,2012-10-30 19:55:00
2:15 PM,75.7,22.3,14,30.13,10.0,North,13.8,17.3,N/A,,Clear,10,2012-10-30 20:15:00
2:35 PM,76.1,22.6,14,30.13,10.0,North,12.7,-,N/A,,Clear,10,2012-10-30 20:35:00
2:55 PM,76.3,22.8,14,30.12,10.0,NNE,15.0,18.4,N/A,,Clear,20,2012-10-30 20:55:00
3:15 PM,77.0,22.3,13,30.11,10.0,North,12.7,-,N/A,,Clear,360,2012-10-30 21:15:00
3:35 PM,77.2,22.1,13,30.11,10.0,North,11.5,16.1,N/A,,Clear,10,2012-10-30 21:35:00
3:55 PM,76.6,21.6,13,30.10,10.0,North,11.5,16.1,N/A,,Clear,360,2012-10-30 21:55:00
4:15 PM,76.5,21.4,13,30.10,10.0,North,12.7,16.1,N/A,,Clear,10,2012-10-30 22:15:00
4:35 PM,75.9,21.4,13,30.10,10.0,North,10.4,-,N/A,,Clear,360,2012-10-30 22:35:00
4:55 PM,75.6,21.2,13,30.10,10.0,North,11.5,16.1,N/A,,Clear,10,2012-10-30 22:55:00
5:15 PM,74.7,21.4,14,30.10,10.0,North,10.4,-,N/A,,Clear,10,2012-10-30 23:15:00
5:35 PM,73.9,21.2,14,30.09,10.0,North,11.5,-,N/A,,Clear,360,2012-10-30 23:35:00
5:55 PM,72.3,21.6,15,30.09,10.0,North,5.8,-,N/A,,Clear,350,2012-10-30 23:55:00
6:15 PM,68.7,20.3,16,30.09,10.0,NW,5.8,-,N/A,,Clear,320,2012-10-31 00:15:00
6:35 PM,65.1,19.4,17,30.10,10.0,NW,5.8,-,N/A,,Clear,320,2012-10-31 00:35:00
6:55 PM,63.0,19.0,18,30.10,10.0,WNW,4.6,-,N/A,,Clear,290,2012-10-31 00:55:00
7:15 PM,62.4,18.5,18,30.11,10.0,West,4.6,-,N/A,,Clear,260,2012-10-31 01:15:00
7:35 PM,61.7,18.5,19,30.11,10.0,West,6.9,-,N/A,,Clear,260,2012-10-31 01:35:00
7:55 PM,60.6,18.7,20,30.11,10.0,NW,4.6,-,N/A,,Clear,310,2012-10-31 01:55:00
8:15 PM,57.4,18.3,22,30.11,10.0,WSW,6.9,-,N/A,,Clear,250,2012-10-31 02:15:00
8:35 PM,58.6,18.5,21,30.11,10.0,WSW,8.1,-,N/A,,Clear,240,2012-10-31 02:35:00
8:55 PM,57.6,18.3,22,30.12,10.0,WSW,10.4,-,N/A,,Clear,250,2012-10-31 02:55:00
9:15 PM,57.6,18.3,22,30.13,10.0,WSW,9.2,-,N/A,,Clear,250,2012-10-31 03:15:00
9:35 PM,57.7,19.0,22,30.13,10.0,Calm,Calm,-,N/A,,Clear,0,2012-10-31 03:35:00
9:55 PM,56.1,18.0,22,30.13,10.0,WSW,3.5,-,N/A,,Clear,240,2012-10-31 03:55:00
10:15 PM,53.4,17.6,24,30.14,10.0,West,5.8,-,N/A,,Clear,260,2012-10-31 04:15:00
10:35 PM,52.2,17.6,26,30.13,10.0,West,4.6,-,N/A,,Clear,270,2012-10-31 04:35:00
10:55 PM,51.3,17.6,26,30.13,10.0,Calm,Calm,-,N/A,,Clear,0,2012-10-31 04:55:00
11:15 PM,50.0,17.6,28,30.14,10.0,NW,3.5,-,N/A,,Clear,320,2012-10-31 05:15:00
11:35 PM,52.5,19.0,27,30.14,10.0,Calm,Calm,-,N/A,,Clear,0,2012-10-31 05:35:00